Time,TemperatureF,DewpointF,PressureIn,WindDirection,WindDirectionDegrees,WindSpeedMPH,WindSpeedGustMPH,Humidity,HourlyPrecipIn,Conditions,Clouds,dailyrainin,SoftwareType,DateUTC
2013-05-12 00:01:00,61.3,60.2,29.78,SW,231,0.0,0.0,96,0.00,,CLR,0.00,VWS V14.00,2013-05-12 04:01:00,
2013-05-12 00:06:00,61.3,60.2,29.78,SW,215,2.0,5.0,96,0.00,,CLR,0.00,VWS V14.00,2013-05-12 04:06:00,
2013-05-12 00:11:00,61.3,60.2,29.78,SSW,212,0.0,5.0,96,0.00,,CLR,0.00,VWS V14.00,2013-05-12 04:11:00,
2013-05-12 00:16:00,61.2,60.0,29.79,SW,219,0.0,5.0,96,0.00,,CLR,0.00,VWS V14.00,2013-05-12 04:16:00,
2013-05-12 00:21:00,61.1,60.0,29.79,SW,229,3.0,5.0,96,0.00,,CLR,0.00,VWS V14.00,2013-05-12 04:21:00,
2013-05-12 00:26:00,61.1,60.0,29.79,SW,231,0.0,5.0,96,0.00,,CLR,0.00,VWS V14.00,2013-05-12 04:26:00,
2013-05-12 00:31:00,61.1,59.7,29.78,WSW,238,0.0,2.0,95,0.00,,CLR,0.00,VWS V14.00,2013-05-12 04:31:00,
2013-05-12 00:36:00,61.1,59.7,29.78,WSW,238,0.0,2.0,95,0.00,,CLR,0.00,VWS V14.00,2013-05-12 04:36:00,
2013-05-12 00:41:00,61.1,59.7,29.78,WSW,238,0.0,2.0,95,0.00,,CLR,0.00,VWS V14.00,2013-05-12 04:41:00,
2013-05-12 00:46:00,61.0,59.6,29.78,WSW,238,0.0,2.0,95,0.00,,CLR,0.00,VWS V14.00,2013-05-12 04:46:00,
2013-05-12 00:51:00,60.9,59.5,29.78,WSW,238,0.0,2.0,95,0.00,,CLR,0.00,VWS V14.00,2013-05-12 04:51:00,
2013-05-12 00:56:00,60.9,59.5,29.78,WSW,237,0.0,2.0,95,0.00,,CLR,0.00,VWS V14.00,2013-05-12 04:56:00,
2013-05-12 01:01:00,60.8,59.4,29.78,WSW,238,0.0,0.0,95,0.00,,CLR,0.00,VWS V14.00,2013-05-12 05:01:00,
2013-05-12 01:06:00,60.7,59.3,29.78,WSW,238,0.0,1.0,95,0.00,,CLR,0.00,VWS V14.00,2013-05-12 05:06:00,
2013-05-12 01:11:00,60.7,59.3,29.78,WSW,238,0.0,1.0,95,0.00,,CLR,0.00,VWS V14.00,2013-05-12 05:11:00,
2013-05-12 01:16:00,60.6,59.2,29.78,SW,233,0.0,2.0,95,0.00,,CLR,0.00,VWS V14.00,2013-05-12 05:16:00,
2013-05-12 01:21:00,60.6,59.2,29.78,SW,233,0.0,2.0,95,0.00,,CLR,0.00,VWS V14.00,2013-05-12 05:21:00,
2013-05-12 01:26:00,60.5,59.1,29.78,SW,233,1.0,2.0,95,0.00,,CLR,0.00,VWS V14.00,2013-05-12 05:26:00,
2013-05-12 01:31:00,60.5,59.1,29.78,SW,233,0.0,3.0,95,0.00,,CLR,0.00,VWS V14.00,2013-05-12 05:31:00,
2013-05-12 01:36:00,60.4,59.0,29.78,WSW,238,0.0,3.0,95,0.00,,CLR,0.00,VWS V14.00,2013-05-12 05:36:00,
2013-05-12 01:41:00,60.4,59.0,29.78,SW,235,0.0,4.0,95,0.00,,CLR,0.00,VWS V14.00,2013-05-12 05:41:00,
2013-05-12 01:46:00,60.3,58.9,29.78,WSW,238,0.0,4.0,95,0.00,,CLR,0.00,VWS V14.00,2013-05-12 05:46:00,
2013-05-12 01:51:00,60.3,58.9,29.78,WSW,238,0.0,4.0,95,0.00,,CLR,0.00,VWS V14.00,2013-05-12 05:51:00,
2013-05-12 01:56:00,60.2,58.8,29.78,WSW,238,0.0,4.0,95,0.00,,CLR,0.00,VWS V14.00,2013-05-12 05:56:00,
2013-05-12 02:01:00,60.1,58.7,29.77,WSW,238,0.0,0.0,95,0.00,,CLR,0.00,VWS V14.00,2013-05-12 06:01:00,
2013-05-12 02:06:00,60.2,58.8,29.77,WSW,238,0.0,1.0,95,0.00,,CLR,0.00,VWS V14.00,2013-05-12 06:06:00,
2013-05-12 02:11:00,60.1,58.7,29.77,WSW,239,0.0,1.0,95,0.00,,CLR,0.00,VWS V14.00,2013-05-12 06:11:00,
2013-05-12 02:16:00,60.1,58.7,29.78,WSW,239,0.0,1.0,95,0.00,,CLR,0.00,VWS V14.00,2013-05-12 06:16:00,
2013-05-12 02:21:00,60.1,58.7,29.78,WSW,239,1.0,1.0,95,0.00,,CLR,0.00,VWS V14.00,2013-05-12 06:21:00,
2013-05-12 02:26:00,60.0,58.6,29.78,WSW,245,0.0,3.0,95,0.00,,CLR,0.00,VWS V14.00,2013-05-12 06:26:00,
2013-05-12 02:31:00,59.9,58.5,29.77,WSW,250,0.0,1.0,95,0.00,,CLR,0.00,VWS V14.00,2013-05-12 06:31:00,
2013-05-12 02:36:00,59.9,58.5,29.77,WSW,250,0.0,1.0,95,0.00,,CLR,0.00,VWS V14.00,2013-05-12 06:36:00,
2013-05-12 02:41:00,59.8,58.4,29.77,WSW,251,0.0,1.0,95,0.00,,CLR,0.00,VWS V14.00,2013-05-12 06:41:00,
2013-05-12 02:46:00,59.7,58.0,29.77,WSW,251,0.0,1.0,94,0.00,,CLR,0.00,VWS V14.00,2013-05-12 06:46:00,
2013-05-12 02:51:00,59.5,57.2,29.77,WSW,253,0.0,1.0,92,0.00,,CLR,0.00,VWS V14.00,2013-05-12 06:51:00,
2013-05-12 02:56:00,59.4,56.8,29.77,WSW,256,0.0,1.0,91,0.00,,CLR,0.00,VWS V14.00,2013-05-12 06:56:00,
2013-05-12 03:01:00,59.3,56.4,29.78,NW,314,0.0,2.0,90,0.00,,CLR,0.00,VWS V14.00,2013-05-12 07:01:00,
2013-05-12 03:06:00,59.0,55.8,29.78,North,351,0.0,3.0,89,0.00,,CLR,0.00,VWS V14.00,2013-05-12 07:06:00,
2013-05-12 03:11:00,59.0,55.8,29.78,NW,316,3.0,4.0,89,0.00,,CLR,0.00,VWS V14.00,2013-05-12 07:11:00,
2013-05-12 03:16:00,59.0,55.5,29.78,NNW,333,0.0,6.0,88,0.00,,CLR,0.00,VWS V14.00,2013-05-12 07:16:00,
2013-05-12 03:21:00,58.8,55.0,29.78,NNW,333,2.0,6.0,87,0.00,,CLR,0.00,VWS V14.00,2013-05-12 07:21:00,
2013-05-12 03:26:00,58.7,55.2,29.78,NW,319,0.0,6.0,88,0.00,,CLR,0.00,VWS V14.00,2013-05-12 07:26:00,
2013-05-12 03:31:00,58.6,55.4,29.77,NW,319,0.0,1.0,89,0.00,,CLR,0.00,VWS V14.00,2013-05-12 07:31:00,
2013-05-12 03:36:00,58.4,55.2,29.77,NW,322,1.0,3.0,89,0.00,,CLR,0.00,VWS V14.00,2013-05-12 07:36:00,
2013-05-12 03:41:00,58.2,54.7,29.77,NW,321,0.0,4.0,88,0.00,,CLR,0.00,VWS V14.00,2013-05-12 07:41:00,
2013-05-12 03:46:00,58.3,54.5,29.78,NW,305,0.0,6.0,87,0.00,,CLR,0.00,VWS V14.00,2013-05-12 07:46:00,
2013-05-12 03:51:00,58.3,54.5,29.78,NNW,335,0.0,6.0,87,0.00,,CLR,0.00,VWS V14.00,2013-05-12 07:51:00,
2013-05-12 03:55:00,58.2,54.4,29.78,NW,310,0.0,6.0,87,0.00,,CLR,0.00,VWS V14.00,2013-05-12 07:55:00,
2013-05-12 04:00:00,58.1,54.3,29.78,NNW,348,3.0,5.0,87,0.00,,CLR,0.00,VWS V14.00,2013-05-12 08:00:00,
2013-05-12 04:05:00,57.9,54.4,29.78,NW,319,2.0,6.0,88,0.00,,CLR,0.00,VWS V14.00,2013-05-12 08:05:00,
2013-05-12 04:10:00,57.7,54.2,29.78,NW,314,3.0,6.0,88,0.00,,CLR,0.00,VWS V14.00,2013-05-12 08:10:00,
2013-05-12 04:15:00,57.5,54.0,29.79,NW,325,0.0,7.0,88,0.00,,CLR,0.00,VWS V14.00,2013-05-12 08:15:00,
2013-05-12 04:20:00,57.1,53.6,29.79,NNW,336,0.0,7.0,88,0.00,,CLR,0.00,VWS V14.00,2013-05-12 08:20:00,
2013-05-12 04:25:00,56.9,53.7,29.79,NNW,340,0.0,7.0,89,0.00,,CLR,0.00,VWS V14.00,2013-05-12 08:25:00,
2013-05-12 04:30:00,56.7,52.9,29.79,NW,325,2.0,7.0,87,0.00,,CLR,0.00,VWS V14.00,2013-05-12 08:30:00,
2013-05-12 04:35:00,56.7,52.6,29.79,NNW,338,0.0,11.0,86,0.00,,CLR,0.00,VWS V14.00,2013-05-12 08:35:00,
2013-05-12 04:40:00,56.7,52.6,29.79,NW,319,0.0,11.0,86,0.00,,CLR,0.00,VWS V14.00,2013-05-12 08:40:00,
2013-05-12 04:45:00,56.6,52.2,29.79,NW,321,1.0,11.0,85,0.00,,CLR,0.00,VWS V14.00,2013-05-12 08:45:00,
2013-05-12 04:50:00,56.3,52.2,29.79,NW,323,0.0,11.0,86,0.00,,CLR,0.00,VWS V14.00,2013-05-12 08:50:00,
2013-05-12 04:55:00,56.1,52.0,29.79,NW,321,0.0,11.0,86,0.00,,CLR,0.00,VWS V14.00,2013-05-12 08:55:00,
2013-05-12 05:00:00,55.9,51.5,29.79,NNW,333,0.0,4.0,85,0.00,,CLR,0.00,VWS V14.00,2013-05-12 09:00:00,
2013-05-12 05:05:00,55.6,51.2,29.79,NNW,333,0.0,4.0,85,0.00,,CLR,0.00,VWS V14.00,2013-05-12 09:05:00,
2013-05-12 05:10:00,55.4,50.7,29.79,NNW,328,1.0,4.0,84,0.00,,CLR,0.00,VWS V14.00,2013-05-12 09:10:00,
2013-05-12 05:15:00,55.3,50.9,29.80,NNW,328,0.0,4.0,85,0.00,,CLR,0.00,VWS V14.00,2013-05-12 09:15:00,
2013-05-12 05:20:00,55.1,51.0,29.80,NNW,332,0.0,4.0,86,0.00,,CLR,0.00,VWS V14.00,2013-05-12 09:20:00,
2013-05-12 05:25:00,54.9,50.5,29.80,NW,325,0.0,5.0,85,0.00,,CLR,0.00,VWS V14.00,2013-05-12 09:25:00,
2013-05-12 05:30:00,54.8,50.4,29.80,NNW,330,0.0,2.0,85,0.00,,CLR,0.00,VWS V14.00,2013-05-12 09:30:00,
2013-05-12 05:35:00,54.7,50.3,29.80,NNW,328,0.0,4.0,85,0.00,,CLR,0.00,VWS V14.00,2013-05-12 09:35:00,
2013-05-12 05:40:00,54.5,50.1,29.80,NW,325,0.0,4.0,85,0.00,,CLR,0.00,VWS V14.00,2013-05-12 09:40:00,
2013-05-12 05:45:00,54.4,50.0,29.81,NW,326,0.0,4.0,85,0.00,,CLR,0.00,VWS V14.00,2013-05-12 09:45:00,
2013-05-12 05:50:00,54.3,49.9,29.81,NW,326,0.0,4.0,85,0.00,,CLR,0.00,VWS V14.00,2013-05-12 09:50:00,
2013-05-12 05:55:00,54.1,50.0,29.81,NW,325,0.0,4.0,86,0.00,,CLR,0.00,VWS V14.00,2013-05-12 09:55:00,
2013-05-12 06:00:00,54.0,49.9,29.81,NW,325,0.0,0.0,86,0.00,,CLR,0.00,VWS V14.00,2013-05-12 10:00:00,
2013-05-12 06:05:00,53.8,49.7,29.81,NW,325,0.0,0.0,86,0.00,,CLR,0.00,VWS V14.00,2013-05-12 10:05:00,
2013-05-12 06:10:00,53.8,50.0,29.81,NW,325,0.0,0.0,87,0.00,,CLR,0.00,VWS V14.00,2013-05-12 10:10:00,
2013-05-12 06:15:00,53.6,50.1,29.82,NW,325,0.0,0.0,88,0.00,,CLR,0.00,VWS V14.00,2013-05-12 10:15:00,
2013-05-12 06:20:00,53.4,50.2,29.82,NW,325,0.0,0.0,89,0.00,,CLR,0.00,VWS V14.00,2013-05-12 10:20:00,
2013-05-12 06:25:00,53.2,50.0,29.82,NW,325,0.0,0.0,89,0.00,,CLR,0.00,VWS V14.00,2013-05-12 10:25:00,
2013-05-12 06:30:00,53.0,49.8,29.82,NW,325,0.0,0.0,89,0.00,,CLR,0.00,VWS V14.00,2013-05-12 10:30:00,
2013-05-12 06:35:00,52.9,49.8,29.82,NW,325,0.0,0.0,89,0.00,,CLR,0.00,VWS V14.00,2013-05-12 10:35:00,
2013-05-12 06:40:00,52.8,49.7,29.82,NW,325,0.0,0.0,89,0.00,,CLR,0.00,VWS V14.00,2013-05-12 10:40:00,
2013-05-12 06:45:00,52.7,49.8,29.82,NW,325,0.0,0.0,90,0.00,,CLR,0.00,VWS V14.00,2013-05-12 10:45:00,
2013-05-12 06:50:00,52.5,50.0,29.82,NW,325,0.0,0.0,91,0.00,,CLR,0.00,VWS V14.00,2013-05-12 10:50:00,
2013-05-12 06:55:00,52.2,49.7,29.82,NW,325,0.0,0.0,91,0.00,,CLR,0.00,VWS V14.00,2013-05-12 10:55:00,
2013-05-12 07:00:00,52.0,49.5,29.83,NW,325,0.0,0.0,91,0.00,,CLR,0.00,VWS V14.00,2013-05-12 11:00:00,
2013-05-12 07:05:00,51.7,49.5,29.83,NW,325,0.0,0.0,92,0.00,,CLR,0.00,VWS V14.00,2013-05-12 11:05:00,
2013-05-12 07:10:00,51.5,49.3,29.83,NW,325,0.0,0.0,92,0.00,,CLR,0.00,VWS V14.00,2013-05-12 11:10:00,
2013-05-12 07:15:00,51.5,49.3,29.84,NW,325,0.0,0.0,92,0.00,,CLR,0.00,VWS V14.00,2013-05-12 11:15:00,
2013-05-12 07:20:00,51.7,49.8,29.84,NW,325,0.0,0.0,93,0.00,,CLR,0.00,VWS V14.00,2013-05-12 11:20:00,
2013-05-12 07:25:00,51.9,49.9,29.84,NW,325,0.0,0.0,93,0.00,,CLR,0.00,VWS V14.00,2013-05-12 11:25:00,
2013-05-12 07:30:00,51.9,49.9,29.85,NW,325,0.0,0.0,93,0.00,,CLR,0.00,VWS V14.00,2013-05-12 11:30:00,
2013-05-12 07:35:00,51.9,49.9,29.85,NW,325,0.0,0.0,93,0.00,,CLR,0.00,VWS V14.00,2013-05-12 11:35:00,
2013-05-12 07:40:00,52.1,50.1,29.85,NW,325,0.0,0.0,93,0.00,,CLR,0.00,VWS V14.00,2013-05-12 11:40:00,
2013-05-12 07:45:00,52.3,50.3,29.85,NW,325,0.0,0.0,93,0.00,,CLR,0.00,VWS V14.00,2013-05-12 11:45:00,
2013-05-12 07:50:00,52.6,50.3,29.85,NW,325,0.0,0.0,92,0.00,,CLR,0.00,VWS V14.00,2013-05-12 11:50:00,
2013-05-12 07:55:00,53.1,51.1,29.85,NW,325,0.0,0.0,93,0.00,,CLR,0.00,VWS V14.00,2013-05-12 11:55:00,
2013-05-12 08:00:00,53.4,51.1,29.85,NW,325,0.0,0.0,92,0.00,,CLR,0.00,VWS V14.00,2013-05-12 12:00:00,
2013-05-12 08:05:00,53.6,51.0,29.85,NW,325,0.0,0.0,91,0.00,,CLR,0.00,VWS V14.00,2013-05-12 12:05:00,
2013-05-12 08:10:00,54.1,51.5,29.85,NW,325,0.0,0.0,91,0.00,,CLR,0.00,VWS V14.00,2013-05-12 12:10:00,
2013-05-12 08:15:00,54.7,51.8,29.85,NW,326,0.0,0.0,90,0.00,,CLR,0.00,VWS V14.00,2013-05-12 12:15:00,
2013-05-12 08:20:00,55.4,52.2,29.85,NW,326,0.0,0.0,89,0.00,,CLR,0.00,VWS V14.00,2013-05-12 12:20:00,
2013-05-12 08:25:00,56.2,53.0,29.85,NW,325,0.0,0.0,89,0.00,,CLR,0.00,VWS V14.00,2013-05-12 12:25:00,
2013-05-12 08:30:00,56.9,53.4,29.85,NW,326,0.0,0.0,88,0.00,,CLR,0.00,VWS V14.00,2013-05-12 12:30:00,
2013-05-12 08:35:00,57.4,53.2,29.85,WSW,252,0.0,1.0,86,0.00,,CLR,0.00,VWS V14.00,2013-05-12 12:35:00,
2013-05-12 08:40:00,57.8,53.3,29.85,WSW,249,0.0,1.0,85,0.00,,CLR,0.00,VWS V14.00,2013-05-12 12:40:00,
2013-05-12 08:45:00,58.4,54.2,29.85,WSW,249,0.0,1.0,86,0.00,,CLR,0.00,VWS V14.00,2013-05-12 12:45:00,
2013-05-12 08:50:00,58.9,54.1,29.85,WSW,250,0.0,1.0,84,0.00,,CLR,0.00,VWS V14.00,2013-05-12 12:50:00,
2013-05-12 08:55:00,59.0,54.2,29.85,WSW,250,0.0,1.0,84,0.00,,CLR,0.00,VWS V14.00,2013-05-12 12:55:00,
2013-05-12 09:00:00,59.4,54.6,29.86,WSW,250,0.0,0.0,84,0.00,,CLR,0.00,VWS V14.00,2013-05-12 13:00:00,
2013-05-12 09:05:00,59.9,54.7,29.86,WSW,249,0.0,0.0,83,0.00,,CLR,0.00,VWS V14.00,2013-05-12 13:05:00,
2013-05-12 09:10:00,60.5,55.0,29.86,WSW,248,0.0,1.0,82,0.00,,CLR,0.00,VWS V14.00,2013-05-12 13:10:00,
2013-05-12 09:15:00,61.1,54.2,29.86,WSW,248,0.0,1.0,78,0.00,,CLR,0.00,VWS V14.00,2013-05-12 13:15:00,
2013-05-12 09:20:00,61.7,54.1,29.86,West,263,0.0,1.0,76,0.00,,CLR,0.00,VWS V14.00,2013-05-12 13:20:00,
2013-05-12 09:25:00,62.3,55.0,29.86,West,278,0.0,1.0,77,0.00,,CLR,0.00,VWS V14.00,2013-05-12 13:25:00,
2013-05-12 09:30:00,62.5,54.8,29.86,West,265,0.0,1.0,76,0.00,,CLR,0.00,VWS V14.00,2013-05-12 13:30:00,
2013-05-12 09:35:00,62.7,54.3,29.86,SW,226,0.0,4.0,74,0.00,,CLR,0.00,VWS V14.00,2013-05-12 13:35:00,
2013-05-12 09:40:00,63.0,53.8,29.86,West,263,0.0,4.0,72,0.00,,CLR,0.00,VWS V14.00,2013-05-12 13:40:00,
2013-05-12 09:45:00,63.6,54.8,29.86,West,269,0.0,6.0,73,0.00,,CLR,0.00,VWS V14.00,2013-05-12 13:45:00,
2013-05-12 09:50:00,64.2,53.4,29.86,NNW,329,5.0,7.0,68,0.00,,CLR,0.00,VWS V14.00,2013-05-12 13:50:00,
2013-05-12 09:55:00,64.3,51.9,29.86,WNW,285,3.0,14.0,64,0.00,,CLR,0.00,VWS V14.00,2013-05-12 13:55:00,
2013-05-12 10:00:00,64.3,51.5,29.85,North,0,4.0,16.0,63,0.00,,CLR,0.00,VWS V14.00,2013-05-12 14:00:00,
2013-05-12 10:05:00,64.4,50.7,29.85,NW,314,2.0,16.0,61,0.00,,CLR,0.00,VWS V14.00,2013-05-12 14:05:00,
2013-05-12 10:10:00,64.6,51.3,29.85,WNW,285,0.0,16.0,62,0.00,,CLR,0.00,VWS V14.00,2013-05-12 14:10:00,
2013-05-12 10:15:00,64.9,51.2,29.86,NW,326,0.0,16.0,61,0.00,,CLR,0.00,VWS V14.00,2013-05-12 14:15:00,
2013-05-12 10:20:00,65.2,49.1,29.86,West,280,5.0,16.0,56,0.00,,CLR,0.00,VWS V14.00,2013-05-12 14:20:00,
2013-05-12 10:25:00,65.2,50.1,29.86,NW,322,3.0,16.0,58,0.00,,CLR,0.00,VWS V14.00,2013-05-12 14:25:00,
2013-05-12 10:30:00,65.2,48.6,29.86,West,276,0.0,4.0,55,0.00,,CLR,0.00,VWS V14.00,2013-05-12 14:30:00,
2013-05-12 10:35:00,65.1,47.6,29.86,NW,316,0.0,13.0,53,0.00,,CLR,0.00,VWS V14.00,2013-05-12 14:35:00,
2013-05-12 10:40:00,65.4,48.8,29.86,West,264,2.0,13.0,55,0.00,,CLR,0.00,VWS V14.00,2013-05-12 14:40:00,
2013-05-12 10:45:00,65.7,48.1,29.86,NNW,330,1.0,15.0,53,0.00,,CLR,0.00,VWS V14.00,2013-05-12 14:45:00,
2013-05-12 10:50:00,65.7,50.1,29.86,NNW,335,0.0,15.0,57,0.00,,CLR,0.00,VWS V14.00,2013-05-12 14:50:00,
2013-05-12 10:55:00,65.8,47.2,29.86,WNW,293,6.0,20.0,51,0.00,,CLR,0.00,VWS V14.00,2013-05-12 14:55:00,
2013-05-12 11:00:00,65.6,47.5,29.86,West,277,2.0,10.0,52,0.00,,CLR,0.00,VWS V14.00,2013-05-12 15:00:00,
2013-05-12 11:05:00,65.6,47.0,29.86,NW,307,6.0,15.0,51,0.00,,CLR,0.00,VWS V14.00,2013-05-12 15:05:00,
2013-05-12 11:10:00,65.5,46.4,29.86,WNW,294,7.0,15.0,50,0.00,,CLR,0.00,VWS V14.00,2013-05-12 15:10:00,
2013-05-12 11:15:00,65.5,45.3,29.86,NW,311,5.0,15.0,48,0.00,,CLR,0.00,VWS V14.00,2013-05-12 15:15:00,
2013-05-12 11:20:00,65.6,46.0,29.86,NNW,335,6.0,17.0,49,0.00,,CLR,0.00,VWS V14.00,2013-05-12 15:20:00,
2013-05-12 11:25:00,65.9,46.2,29.86,NW,314,6.0,17.0,49,0.00,,CLR,0.00,VWS V14.00,2013-05-12 15:25:00,
2013-05-12 11:30:00,65.9,46.2,29.86,NW,325,4.0,10.0,49,0.00,,CLR,0.00,VWS V14.00,2013-05-12 15:30:00,
2013-05-12 11:35:00,66.0,46.8,29.86,NNW,340,12.0,15.0,50,0.00,,CLR,0.00,VWS V14.00,2013-05-12 15:35:00,
2013-05-12 11:40:00,66.1,46.4,29.86,WSW,245,1.0,24.0,49,0.00,,CLR,0.00,VWS V14.00,2013-05-12 15:40:00,
2013-05-12 11:45:00,66.5,47.3,29.87,WNW,283,1.0,24.0,50,0.00,,CLR,0.00,VWS V14.00,2013-05-12 15:45:00,
2013-05-12 11:50:00,66.6,46.3,29.87,WNW,290,0.0,24.0,48,0.00,,CLR,0.00,VWS V14.00,2013-05-12 15:50:00,
2013-05-12 11:55:00,66.7,47.0,29.87,NW,324,6.0,24.0,49,0.00,,CLR,0.00,VWS V14.00,2013-05-12 15:55:00,
2013-05-12 12:00:00,66.9,45.5,29.87,West,268,0.0,6.0,46,0.00,,CLR,0.00,VWS V14.00,2013-05-12 16:00:00,
2013-05-12 12:05:00,67.0,46.7,29.87,West,277,1.0,14.0,48,0.00,,CLR,0.00,VWS V14.00,2013-05-12 16:05:00,
2013-05-12 12:10:00,67.3,48.6,29.87,NW,305,5.0,14.0,51,0.00,,CLR,0.00,VWS V14.00,2013-05-12 16:10:00,
2013-05-12 12:15:00,67.4,47.0,29.87,West,263,5.0,14.0,48,0.00,,CLR,0.00,VWS V14.00,2013-05-12 16:15:00,
2013-05-12 12:20:00,67.7,44.4,29.87,NNW,340,16.0,18.0,43,0.00,,CLR,0.00,VWS V14.00,2013-05-12 16:20:00,
2013-05-12 12:25:00,67.8,47.4,29.87,NW,315,0.0,18.0,48,0.00,,CLR,0.00,VWS V14.00,2013-05-12 16:25:00,
2013-05-12 12:30:00,68.1,47.1,29.86,West,267,0.0,1.0,47,0.00,,CLR,0.00,VWS V14.00,2013-05-12 16:30:00,
2013-05-12 12:35:00,68.4,46.8,29.86,WNW,287,0.0,7.0,46,0.00,,CLR,0.00,VWS V14.00,2013-05-12 16:35:00,
2013-05-12 12:40:00,68.6,48.7,29.86,NNW,336,3.0,11.0,49,0.00,,CLR,0.00,VWS V14.00,2013-05-12 16:40:00,
2013-05-12 12:45:00,68.6,47.0,29.86,West,264,0.0,11.0,46,0.00,,CLR,0.00,VWS V14.00,2013-05-12 16:45:00,
2013-05-12 12:50:00,68.7,48.8,29.86,NNW,345,4.0,11.0,49,0.00,,CLR,0.00,VWS V14.00,2013-05-12 16:50:00,
2013-05-12 12:55:00,68.9,47.3,29.86,West,277,0.0,11.0,46,0.00,,CLR,0.00,VWS V14.00,2013-05-12 16:55:00,
2013-05-12 13:00:00,69.0,47.4,29.86,NW,324,5.0,13.0,46,0.00,,CLR,0.00,VWS V14.00,2013-05-12 17:00:00,
2013-05-12 13:05:00,69.2,48.1,29.86,West,278,0.0,20.0,47,0.00,,CLR,0.00,VWS V14.00,2013-05-12 17:05:00,
2013-05-12 13:10:00,69.2,48.7,29.86,West,278,4.0,20.0,48,0.00,,CLR,0.00,VWS V14.00,2013-05-12 17:10:00,
2013-05-12 13:15:00,69.4,50.0,29.86,WSW,238,3.0,20.0,50,0.00,,CLR,0.00,VWS V14.00,2013-05-12 17:15:00,
2013-05-12 13:20:00,69.7,48.6,29.86,NW,306,6.0,20.0,47,0.00,,CLR,0.00,VWS V14.00,2013-05-12 17:20:00,
2013-05-12 13:25:00,69.4,48.3,29.86,NW,322,4.0,20.0,47,0.00,,CLR,0.00,VWS V14.00,2013-05-12 17:25:00,
2013-05-12 13:30:00,69.4,48.9,29.86,NNW,346,0.0,9.0,48,0.00,,CLR,0.00,VWS V14.00,2013-05-12 17:30:00,
2013-05-12 13:35:00,70.0,50.5,29.86,West,271,2.0,9.0,50,0.00,,CLR,0.00,VWS V14.00,2013-05-12 17:35:00,
2013-05-12 13:40:00,70.1,47.2,29.86,West,269,0.0,10.0,44,0.00,,CLR,0.00,VWS V14.00,2013-05-12 17:40:00,
2013-05-12 13:45:00,69.8,48.7,29.86,SSW,200,4.0,11.0,47,0.00,,CLR,0.00,VWS V14.00,2013-05-12 17:45:00,
2013-05-12 13:50:00,70.0,48.9,29.86,West,260,0.0,11.0,47,0.00,,CLR,0.00,VWS V14.00,2013-05-12 17:50:00,
2013-05-12 13:55:00,70.4,49.2,29.86,North,359,3.0,11.0,47,0.00,,CLR,0.00,VWS V14.00,2013-05-12 17:55:00,
2013-05-12 14:00:00,70.6,49.4,29.85,NNW,340,3.0,7.0,47,0.00,,CLR,0.00,VWS V14.00,2013-05-12 18:00:00,
2013-05-12 14:05:00,70.7,48.9,29.85,WNW,297,4.0,9.0,46,0.00,,CLR,0.00,VWS V14.00,2013-05-12 18:05:00,
2013-05-12 14:10:00,70.8,50.2,29.85,NNW,330,2.0,10.0,48,0.00,,CLR,0.00,VWS V14.00,2013-05-12 18:10:00,
2013-05-12 14:15:00,70.9,50.2,29.85,NNW,329,13.0,13.0,48,0.00,,CLR,0.00,VWS V14.00,2013-05-12 18:15:00,
2013-05-12 14:20:00,70.8,49.0,29.85,NW,307,4.0,15.0,46,0.00,,CLR,0.00,VWS V14.00,2013-05-12 18:20:00,
2013-05-12 14:25:00,70.8,50.7,29.85,North,354,4.0,15.0,49,0.00,,CLR,0.00,VWS V14.00,2013-05-12 18:25:00,
2013-05-12 14:30:00,71.0,50.9,29.85,NNW,333,1.0,9.0,49,0.00,,CLR,0.00,VWS V14.00,2013-05-12 18:30:00,
2013-05-12 14:35:00,70.7,48.9,29.85,NNW,332,0.0,10.0,46,0.00,,CLR,0.00,VWS V14.00,2013-05-12 18:35:00,
2013-05-12 14:40:00,71.0,49.8,29.85,NNW,329,3.0,12.0,47,0.00,,CLR,0.00,VWS V14.00,2013-05-12 18:40:00,
2013-05-12 14:45:00,71.3,48.9,29.85,NNW,335,10.0,13.0,45,0.00,,CLR,0.00,VWS V14.00,2013-05-12 18:45:00,
2013-05-12 14:50:00,71.3,48.9,29.85,NW,305,7.0,13.0,45,0.00,,CLR,0.00,VWS V14.00,2013-05-12 18:50:00,
2013-05-12 14:55:00,71.0,47.4,29.85,West,273,0.0,13.0,43,0.00,,CLR,0.00,VWS V14.00,2013-05-12 18:55:00,
2013-05-12 15:00:00,71.0,46.1,29.85,NNW,341,4.0,12.0,41,0.00,,CLR,0.00,VWS V14.00,2013-05-12 19:00:00,
2013-05-12 15:05:00,71.2,50.0,29.85,NNE,12,5.0,14.0,47,0.00,,CLR,0.00,VWS V14.00,2013-05-12 19:05:00,
2013-05-12 15:10:00,71.0,47.4,29.85,NNW,346,10.0,15.0,43,0.00,,CLR,0.00,VWS V14.00,2013-05-12 19:10:00,
2013-05-12 15:15:00,71.2,45.0,29.84,NW,321,0.0,15.0,39,0.00,,CLR,0.00,VWS V14.00,2013-05-12 19:15:00,
2013-05-12 15:20:00,71.3,42.3,29.84,WSW,245,1.0,15.0,35,0.00,,CLR,0.00,VWS V14.00,2013-05-12 19:20:00,
2013-05-12 15:25:00,71.4,45.2,29.84,NW,309,4.0,15.0,39,0.00,,CLR,0.00,VWS V14.00,2013-05-12 19:25:00,
2013-05-12 15:30:00,71.4,43.1,29.84,NW,311,5.0,13.0,36,0.00,,CLR,0.00,VWS V14.00,2013-05-12 19:30:00,
2013-05-12 15:35:00,70.9,41.2,29.84,North,0,13.0,24.0,34,0.00,,CLR,0.00,VWS V14.00,2013-05-12 19:35:00,
2013-05-12 15:40:00,70.6,39.3,29.84,North,353,16.0,24.0,32,0.00,,CLR,0.00,VWS V14.00,2013-05-12 19:40:00,
2013-05-12 15:45:00,70.4,38.3,29.84,NW,319,7.0,24.0,31,0.00,,CLR,0.00,VWS V14.00,2013-05-12 19:45:00,
2013-05-12 15:50:00,70.4,36.7,29.84,NW,323,1.0,24.0,29,0.00,,CLR,0.00,VWS V14.00,2013-05-12 19:50:00,
2013-05-12 15:55:00,70.4,38.3,29.84,NW,311,0.0,24.0,31,0.00,,CLR,0.00,VWS V14.00,2013-05-12 19:55:00,
2013-05-12 16:00:00,70.4,33.9,29.84,North,0,7.0,16.0,26,0.00,,CLR,0.00,VWS V14.00,2013-05-12 20:00:00,
2013-05-12 16:05:00,70.6,33.1,29.84,North,10,4.0,16.0,25,0.00,,CLR,0.00,VWS V14.00,2013-05-12 20:05:00,
2013-05-12 16:10:00,70.5,34.9,29.84,NNW,331,10.0,16.0,27,0.00,,CLR,0.00,VWS V14.00,2013-05-12 20:10:00,
2013-05-12 16:15:00,70.3,34.8,29.84,West,276,4.0,18.0,27,0.00,,CLR,0.00,VWS V14.00,2013-05-12 20:15:00,
2013-05-12 16:20:00,70.3,33.8,29.84,NNW,330,10.0,18.0,26,0.00,,CLR,0.00,VWS V14.00,2013-05-12 20:20:00,
2013-05-12 16:25:00,70.2,32.8,29.84,NW,319,3.0,18.0,25,0.00,,CLR,0.00,VWS V14.00,2013-05-12 20:25:00,
2013-05-12 16:30:00,70.3,32.8,29.84,NW,322,3.0,12.0,25,0.00,,CLR,0.00,VWS V14.00,2013-05-12 20:30:00,
2013-05-12 16:35:00,70.7,35.1,29.84,NW,311,1.0,12.0,27,0.00,,CLR,0.00,VWS V14.00,2013-05-12 20:35:00,
2013-05-12 16:40:00,70.8,37.0,29.84,NNW,335,0.0,12.0,29,0.00,,CLR,0.00,VWS V14.00,2013-05-12 20:40:00,
2013-05-12 16:45:00,70.7,35.1,29.83,West,268,4.0,12.0,27,0.00,,CLR,0.00,VWS V14.00,2013-05-12 20:45:00,
2013-05-12 16:50:00,70.6,36.8,29.83,West,262,3.0,15.0,29,0.00,,CLR,0.00,VWS V14.00,2013-05-12 20:50:00,
2013-05-12 16:55:00,70.5,38.4,29.83,WNW,301,1.0,15.0,31,0.00,,CLR,0.00,VWS V14.00,2013-05-12 20:55:00,
2013-05-12 17:00:00,70.7,36.0,29.83,NW,326,2.0,6.0,28,0.00,,CLR,0.00,VWS V14.00,2013-05-12 21:00:00,
2013-05-12 17:05:00,70.4,39.2,29.83,NNW,330,6.0,15.0,32,0.00,,CLR,0.00,VWS V14.00,2013-05-12 21:05:00,
2013-05-12 17:10:00,70.3,42.1,29.83,WNW,297,2.0,15.0,36,0.00,,CLR,0.00,VWS V14.00,2013-05-12 21:10:00,
2013-05-12 17:15:00,70.1,40.5,29.84,WSW,250,1.0,15.0,34,0.00,,CLR,0.00,VWS V14.00,2013-05-12 21:15:00,
2013-05-12 17:20:00,70.1,39.7,29.84,WNW,285,0.0,15.0,33,0.00,,CLR,0.00,VWS V14.00,2013-05-12 21:20:00,
2013-05-12 17:25:00,70.1,38.9,29.84,NNW,335,2.0,15.0,32,0.00,,CLR,0.00,VWS V14.00,2013-05-12 21:25:00,
2013-05-12 17:30:00,70.1,40.5,29.84,WNW,288,9.0,9.0,34,0.00,,CLR,0.00,VWS V14.00,2013-05-12 21:30:00,
2013-05-12 17:35:00,70.0,41.1,29.84,NNW,332,0.0,9.0,35,0.00,,CLR,0.00,VWS V14.00,2013-05-12 21:35:00,
2013-05-12 17:40:00,69.9,41.0,29.84,WNW,282,0.0,10.0,35,0.00,,CLR,0.00,VWS V14.00,2013-05-12 21:40:00,
2013-05-12 17:45:00,69.8,41.7,29.85,NNE,13,1.0,12.0,36,0.00,,CLR,0.00,VWS V14.00,2013-05-12 21:45:00,
2013-05-12 17:50:00,69.8,40.9,29.85,SSW,213,0.0,13.0,35,0.00,,CLR,0.00,VWS V14.00,2013-05-12 21:50:00,
2013-05-12 17:55:00,69.8,42.4,29.85,West,262,0.0,13.0,37,0.00,,CLR,0.00,VWS V14.00,2013-05-12 21:55:00,
2013-05-12 18:00:00,69.8,42.4,29.85,NNW,345,0.0,8.0,37,0.00,,CLR,0.00,VWS V14.00,2013-05-12 22:00:00,
2013-05-12 18:06:00,69.7,42.3,29.85,NNW,333,6.0,11.0,37,0.00,,CLR,0.00,VWS V14.00,2013-05-12 22:06:00,
2013-05-12 18:11:00,69.5,44.2,29.85,North,355,6.0,15.0,40,0.00,,CLR,0.00,VWS V14.00,2013-05-12 22:11:00,
2013-05-12 18:15:00,69.5,42.1,29.86,NNW,336,5.0,15.0,37,0.00,,CLR,0.00,VWS V14.00,2013-05-12 22:15:00,
2013-05-12 18:20:00,69.4,44.7,29.86,WNW,285,0.0,15.0,41,0.00,,CLR,0.00,VWS V14.00,2013-05-12 22:20:00,
2013-05-12 18:25:00,69.1,45.7,29.86,North,359,2.0,15.0,43,0.00,,CLR,0.00,VWS V14.00,2013-05-12 22:25:00,
2013-05-12 18:30:00,68.9,44.9,29.86,North,359,6.0,10.0,42,0.00,,CLR,0.00,VWS V14.00,2013-05-12 22:30:00,
2013-05-12 18:35:00,68.4,44.4,29.86,North,356,8.0,11.0,42,0.00,,CLR,0.00,VWS V14.00,2013-05-12 22:35:00,
2013-05-12 18:40:00,68.1,46.0,29.86,North,0,9.0,11.0,45,0.00,,CLR,0.00,VWS V14.00,2013-05-12 22:40:00,
2013-05-12 18:45:00,67.7,44.4,29.87,NNW,347,5.0,12.0,43,0.00,,CLR,0.00,VWS V14.00,2013-05-12 22:45:00,
2013-05-12 18:50:00,67.4,42.9,29.87,North,357,7.0,15.0,41,0.00,,CLR,0.00,VWS V14.00,2013-05-12 22:50:00,
2013-05-12 18:55:00,67.2,43.4,29.87,North,353,0.0,15.0,42,0.00,,CLR,0.00,VWS V14.00,2013-05-12 22:55:00,
2013-05-12 19:00:00,67.0,43.2,29.87,NW,321,13.0,16.0,42,0.00,,CLR,0.00,VWS V14.00,2013-05-12 23:00:00,
2013-05-12 19:05:00,66.7,43.5,29.87,North,359,3.0,16.0,43,0.00,,CLR,0.00,VWS V14.00,2013-05-12 23:05:00,
2013-05-12 19:10:00,66.5,43.3,29.87,North,0,10.0,16.0,43,0.00,,CLR,0.00,VWS V14.00,2013-05-12 23:10:00,
2013-05-12 19:15:00,66.2,43.1,29.88,NNW,332,1.0,16.0,43,0.00,,CLR,0.00,VWS V14.00,2013-05-12 23:15:00,
2013-05-12 19:20:00,65.8,43.3,29.88,North,2,4.0,16.0,44,0.00,,CLR,0.00,VWS V14.00,2013-05-12 23:20:00,
2013-05-12 19:25:00,65.5,42.4,29.88,NNW,339,6.0,16.0,43,0.00,,CLR,0.00,VWS V14.00,2013-05-12 23:25:00,
2013-05-12 19:30:00,65.3,42.8,29.88,North,352,2.0,6.0,44,0.00,,CLR,0.00,VWS V14.00,2013-05-12 23:30:00,
2013-05-12 19:35:00,65.0,42.6,29.88,NNW,338,3.0,10.0,44,0.00,,CLR,0.00,VWS V14.00,2013-05-12 23:35:00,
2013-05-12 19:40:00,64.7,42.9,29.88,North,1,11.0,11.0,45,0.00,,CLR,0.00,VWS V14.00,2013-05-12 23:40:00,
2013-05-12 19:45:00,64.3,42.5,29.89,North,359,2.0,12.0,45,0.00,,CLR,0.00,VWS V14.00,2013-05-12 23:45:00,
2013-05-12 19:50:00,63.9,41.6,29.89,North,1,3.0,13.0,44,0.00,,CLR,0.00,VWS V14.00,2013-05-12 23:50:00,
2013-05-12 19:55:00,63.6,41.9,29.89,North,1,5.0,13.0,45,0.00,,CLR,0.00,VWS V14.00,2013-05-12 23:55:00,
2013-05-12 20:00:00,63.1,41.4,29.90,NNW,335,1.0,8.0,45,0.00,,CLR,0.00,VWS V14.00,2013-05-13 00:00:00,
2013-05-12 20:06:00,62.9,41.3,29.90,NW,321,1.0,8.0,45,0.00,,CLR,0.00,VWS V14.00,2013-05-13 00:06:00,
2013-05-12 20:11:00,62.5,41.5,29.90,North,352,4.0,10.0,46,0.00,,CLR,0.00,VWS V14.00,2013-05-13 00:11:00,
2013-05-12 20:16:00,62.2,41.2,29.90,North,1,1.0,10.0,46,0.00,,CLR,0.00,VWS V14.00,2013-05-13 00:16:00,
2013-05-12 20:21:00,61.8,41.4,29.90,North,0,0.0,10.0,47,0.00,,CLR,0.00,VWS V14.00,2013-05-13 00:21:00,
2013-05-12 20:26:00,61.5,40.5,29.90,North,359,1.0,10.0,46,0.00,,CLR,0.00,VWS V14.00,2013-05-13 00:26:00,
2013-05-12 20:31:00,61.3,40.9,29.90,North,359,4.0,4.0,47,0.00,,CLR,0.00,VWS V14.00,2013-05-13 00:31:00,
2013-05-12 20:36:00,60.9,40.5,29.90,NNE,31,0.0,4.0,47,0.00,,CLR,0.00,VWS V14.00,2013-05-13 00:36:00,
2013-05-12 20:41:00,60.6,40.8,29.90,North,6,0.0,4.0,48,0.00,,CLR,0.00,VWS V14.00,2013-05-13 00:41:00,
2013-05-12 20:46:00,60.2,41.0,29.91,North,358,3.0,5.0,49,0.00,,CLR,0.00,VWS V14.00,2013-05-13 00:46:00,
2013-05-12 20:51:00,59.9,41.2,29.91,North,0,0.0,5.0,50,0.00,,CLR,0.00,VWS V14.00,2013-05-13 00:51:00,
2013-05-12 20:56:00,59.4,41.3,29.91,North,0,0.0,5.0,51,0.00,,CLR,0.00,VWS V14.00,2013-05-13 00:56:00,
2013-05-12 21:01:00,59.0,41.9,29.91,North,359,4.0,9.0,53,0.00,,CLR,0.00,VWS V14.00,2013-05-13 01:01:00,
2013-05-12 21:06:00,58.7,41.6,29.91,North,356,0.0,9.0,53,0.00,,CLR,0.00,VWS V14.00,2013-05-13 01:06:00,
2013-05-12 21:11:00,58.2,41.2,29.91,North,359,0.0,9.0,53,0.00,,CLR,0.00,VWS V14.00,2013-05-13 01:11:00,
2013-05-12 21:16:00,57.7,41.2,29.92,North,359,0.0,9.0,54,0.00,,CLR,0.00,VWS V14.00,2013-05-13 01:16:00,
2013-05-12 21:21:00,57.3,40.8,29.92,North,359,0.0,9.0,54,0.00,,CLR,0.00,VWS V14.00,2013-05-13 01:21:00,
2013-05-12 21:26:00,56.9,40.9,29.92,North,359,0.0,9.0,55,0.00,,CLR,0.00,VWS V14.00,2013-05-13 01:26:00,
2013-05-12 21:31:00,56.6,40.6,29.93,North,359,0.0,0.0,55,0.00,,CLR,0.00,VWS V14.00,2013-05-13 01:31:00,
2013-05-12 21:36:00,56.5,40.5,29.93,North,359,0.0,2.0,55,0.00,,CLR,0.00,VWS V14.00,2013-05-13 01:36:00,
2013-05-12 21:41:00,56.3,40.8,29.93,NNW,333,0.0,3.0,56,0.00,,CLR,0.00,VWS V14.00,2013-05-13 01:41:00,
2013-05-12 21:46:00,56.0,41.0,29.93,NW,322,3.0,5.0,57,0.00,,CLR,0.00,VWS V14.00,2013-05-13 01:46:00,
2013-05-12 21:51:00,55.9,40.5,29.93,NNW,334,1.0,7.0,56,0.00,,CLR,0.00,VWS V14.00,2013-05-13 01:51:00,
2013-05-12 21:56:00,55.8,41.7,29.93,North,356,0.0,7.0,59,0.00,,CLR,0.00,VWS V14.00,2013-05-13 01:56:00,
2013-05-12 22:01:00,55.4,41.3,29.94,NW,317,0.0,2.0,59,0.00,,CLR,0.00,VWS V14.00,2013-05-13 02:01:00,
2013-05-12 22:06:00,55.0,41.0,29.94,NW,323,1.0,5.0,59,0.00,,CLR,0.00,VWS V14.00,2013-05-13 02:06:00,
2013-05-12 22:11:00,54.9,40.0,29.94,NNW,338,5.0,5.0,57,0.00,,CLR,0.00,VWS V14.00,2013-05-13 02:11:00,
2013-05-12 22:16:00,55.3,39.9,29.94,NNW,345,2.0,6.0,56,0.00,,CLR,0.00,VWS V14.00,2013-05-13 02:16:00,
2013-05-12 22:21:00,55.5,40.5,29.94,North,349,0.0,7.0,57,0.00,,CLR,0.00,VWS V14.00,2013-05-13 02:21:00,
2013-05-12 22:26:00,55.3,40.3,29.94,North,1,0.0,7.0,57,0.00,,CLR,0.00,VWS V14.00,2013-05-13 02:26:00,
2013-05-12 22:31:00,55.0,39.6,29.94,North,0,1.0,3.0,56,0.00,,CLR,0.00,VWS V14.00,2013-05-13 02:31:00,
2013-05-12 22:36:00,54.7,40.2,29.94,North,356,1.0,7.0,58,0.00,,CLR,0.00,VWS V14.00,2013-05-13 02:36:00,
2013-05-12 22:41:00,54.6,40.1,29.94,NNW,332,0.0,7.0,58,0.00,,CLR,0.00,VWS V14.00,2013-05-13 02:41:00,
2013-05-12 22:46:00,54.6,40.1,29.94,North,359,0.0,7.0,58,0.00,,CLR,0.00,VWS V14.00,2013-05-13 02:46:00,
2013-05-12 22:51:00,54.5,39.6,29.94,North,359,0.0,7.0,57,0.00,,CLR,0.00,VWS V14.00,2013-05-13 02:51:00,
2013-05-12 22:56:00,54.3,40.7,29.94,North,359,0.0,7.0,60,0.00,,CLR,0.00,VWS V14.00,2013-05-13 02:56:00,
2013-05-12 23:01:00,53.9,40.3,29.95,North,359,0.0,0.0,60,0.00,,CLR,0.00,VWS V14.00,2013-05-13 03:01:00,
2013-05-12 23:06:00,53.6,39.6,29.95,North,359,0.0,0.0,59,0.00,,CLR,0.00,VWS V14.00,2013-05-13 03:06:00,
2013-05-12 23:11:00,53.3,39.3,29.95,North,359,0.0,1.0,59,0.00,,CLR,0.00,VWS V14.00,2013-05-13 03:11:00,
2013-05-12 23:16:00,53.1,39.6,29.95,North,359,0.0,2.0,60,0.00,,CLR,0.00,VWS V14.00,2013-05-13 03:16:00,
2013-05-12 23:21:00,52.9,39.4,29.95,North,359,0.0,2.0,60,0.00,,CLR,0.00,VWS V14.00,2013-05-13 03:21:00,
2013-05-12 23:26:00,52.8,39.3,29.95,North,359,0.0,2.0,60,0.00,,CLR,0.00,VWS V14.00,2013-05-13 03:26:00,
2013-05-12 23:31:00,52.7,39.6,29.96,North,359,0.0,3.0,61,0.00,,CLR,0.00,VWS V14.00,2013-05-13 03:31:00,
2013-05-12 23:36:00,52.7,40.1,29.96,North,359,0.0,3.0,62,0.00,,CLR,0.00,VWS V14.00,2013-05-13 03:36:00,
2013-05-12 23:41:00,52.6,40.4,29.96,North,359,0.0,3.0,63,0.00,,CLR,0.00,VWS V14.00,2013-05-13 03:41:00,
2013-05-12 23:46:00,52.5,40.3,29.96,North,359,0.0,3.0,63,0.00,,CLR,0.00,VWS V14.00,2013-05-13 03:46:00,
2013-05-12 23:51:00,52.2,40.0,29.96,North,359,0.0,3.0,63,0.00,,CLR,0.00,VWS V14.00,2013-05-13 03:51:00,
2013-05-12 23:56:00,51.8,39.6,29.96,North,359,0.0,3.0,63,0.00,,CLR,0.00,VWS V14.00,2013-05-13 03:56:00,